JBU618 KJFK-KBOS

Flight info

Callsign JBU618
Flight time 0h 40m
Altitude 21000
Route MERIT ROBUC3
Aircraft A320/M-SDE3FGHIRWY/LB1

Departure

Time 2026-05-07 23:32
Airport John F. Kennedy International Airport (KJFK)

Arrival

Time 2026-05-08 00:13
Airport Boston Logan International Airport (KBOS)
Time Latitude Longitude Altitude Speed Heading
2026-05-07 23:06 40.64619 -73.77305 16 ft 0 kts 191°
2026-05-07 23:20 40.64637 -73.77300 18 ft 4 kts 208°
2026-05-07 23:20 40.64654 -73.77278 16 ft 4 kts 253°
2026-05-07 23:20 40.64657 -73.77256 16 ft 1 kts 270°
2026-05-07 23:20 40.64657 -73.77252 16 ft 0 kts 270°
2026-05-07 23:24 40.64657 -73.77253 16 ft 0 kts 270°
2026-05-07 23:24 40.64667 -73.77284 16 ft 7 kts 310°
2026-05-07 23:24 40.64707 -73.77342 16 ft 6 kts 304°
2026-05-07 23:24 40.64715 -73.77359 17 ft 1 kts 302°
2026-05-07 23:25 40.64718 -73.77365 17 ft 0 kts 301°
2026-05-07 23:25 40.64719 -73.77369 18 ft 1 kts 302°
2026-05-07 23:25 40.64735 -73.77379 16 ft 6 kts 350°
2026-05-07 23:25 40.64782 -73.77336 16 ft 10 kts 72°
2026-05-07 23:26 40.64751 -73.77243 16 ft 13 kts 121°
2026-05-07 23:26 40.64694 -73.77130 17 ft 15 kts 131°
2026-05-07 23:26 40.64603 -73.77089 16 ft 16 kts 178°
2026-05-07 23:26 40.64482 -73.77094 16 ft 16 kts 186°
2026-05-07 23:27 40.64391 -73.76943 16 ft 13 kts 123°
2026-05-07 23:27 40.64313 -73.76883 16 ft 14 kts 180°
2026-05-07 23:27 40.64210 -73.76888 17 ft 17 kts 184°
2026-05-07 23:28 40.64084 -73.76905 16 ft 19 kts 187°
2026-05-07 23:28 40.63970 -73.76912 16 ft 16 kts 181°
2026-05-07 23:28 40.63841 -73.76916 16 ft 21 kts 180°
2026-05-07 23:28 40.63677 -73.76919 16 ft 26 kts 181°
2026-05-07 23:29 40.63507 -73.76924 16 ft 21 kts 183°
2026-05-07 23:29 40.63361 -73.76942 16 ft 21 kts 185°
2026-05-07 23:29 40.63221 -73.76947 16 ft 20 kts 181°
2026-05-07 23:29 40.63083 -73.76981 16 ft 20 kts 202°
2026-05-07 23:30 40.62963 -73.77074 17 ft 17 kts 210°
2026-05-07 23:30 40.62855 -73.77159 16 ft 16 kts 210°
2026-05-07 23:30 40.62823 -73.77231 16 ft 7 kts 301°
2026-05-07 23:30 40.62824 -73.77234 16 ft 0 kts 301°
2026-05-07 23:31 40.62837 -73.77261 16 ft 18 kts 301°
2026-05-07 23:32 40.63065 -73.77762 20 ft 107 kts 301°
2026-05-07 23:32 40.63574 -73.78882 50 ft 171 kts 303°
2026-05-07 23:32 40.64193 -73.80244 864 ft 176 kts 298°
2026-05-07 23:32 40.64361 -73.81879 1632 ft 193 kts 263°
2026-05-07 23:33 40.63646 -73.83489 1981 ft 220 kts 225°
2026-05-07 23:33 40.62527 -73.84850 2768 ft 221 kts 227°
2026-05-07 23:33 40.61449 -73.86308 3636 ft 222 kts 229°
2026-05-07 23:33 40.60274 -73.87642 4478 ft 228 kts 208°
2026-05-07 23:34 40.58712 -73.88104 5218 ft 240 kts 180°
2026-05-07 23:34 40.57024 -73.87535 5638 ft 266 kts 155°
2026-05-07 23:34 40.55298 -73.86487 6326 ft 278 kts 156°
2026-05-07 23:34 40.53458 -73.85668 7149 ft 282 kts 171°
2026-05-07 23:35 40.51537 -73.85066 7991 ft 289 kts 161°
2026-05-07 23:35 40.49843 -73.83555 8795 ft 303 kts 134°
2026-05-07 23:35 40.48834 -73.81085 9561 ft 315 kts 103°
2026-05-07 23:35 40.48847 -73.78201 10168 ft 325 kts 73°
2026-05-07 23:36 40.49870 -73.75549 10402 ft 340 kts 47°
2026-05-07 23:36 40.51638 -73.73413 10687 ft 350 kts 26°
2026-05-07 23:36 40.53792 -73.71861 11233 ft 357 kts 22°
2026-05-07 23:36 40.56014 -73.70329 11833 ft 365 kts 21°
2026-05-07 23:37 40.58289 -73.68783 12433 ft 373 kts 21°
2026-05-07 23:37 40.60626 -73.67203 13048 ft 380 kts 21°
2026-05-07 23:37 40.63000 -73.65596 13723 ft 386 kts 21°
2026-05-07 23:37 40.65408 -73.63964 14262 ft 393 kts 21°
2026-05-07 23:38 40.67866 -73.62295 14802 ft 400 kts 21°
2026-05-07 23:38 40.70350 -73.60603 15389 ft 404 kts 21°
2026-05-07 23:38 40.72860 -73.58887 15982 ft 409 kts 21°
2026-05-07 23:38 40.75387 -73.57157 16718 ft 406 kts 21°
2026-05-07 23:39 40.77804 -73.55491 18116 ft 386 kts 21°
2026-05-07 23:39 40.80133 -73.53879 19302 ft 375 kts 20°
2026-05-07 23:39 40.82503 -73.52262 19533 ft 393 kts 20°
2026-05-07 23:39 40.85003 -73.50574 19661 ft 412 kts 20°
2026-05-07 23:40 40.87611 -73.48812 19808 ft 429 kts 20°
2026-05-07 23:40 40.90290 -73.46988 20210 ft 437 kts 21°
2026-05-07 23:40 40.93003 -73.45120 20675 ft 442 kts 21°
2026-05-07 23:40 40.95730 -73.43228 20825 ft 443 kts 21°
2026-05-07 23:41 40.98473 -73.41324 20854 ft 445 kts 21°
2026-05-07 23:41 41.01180 -73.39442 20846 ft 437 kts 21°
2026-05-07 23:41 41.03867 -73.37576 20849 ft 435 kts 21°
2026-05-07 23:41 41.06552 -73.35717 20861 ft 434 kts 21°
2026-05-07 23:42 41.09239 -73.33859 20846 ft 434 kts 21°
2026-05-07 23:42 41.11883 -73.32034 20859 ft 434 kts 21°
2026-05-07 23:42 41.14565 -73.30184 20851 ft 434 kts 21°
2026-05-07 23:42 41.17243 -73.28334 20845 ft 434 kts 21°
2026-05-07 23:43 41.19923 -73.26476 20849 ft 435 kts 21°
2026-05-07 23:43 41.22604 -73.24614 20849 ft 436 kts 21°
2026-05-07 23:43 41.25296 -73.22745 20855 ft 436 kts 21°
2026-05-07 23:43 41.27982 -73.20877 20860 ft 436 kts 21°
2026-05-07 23:44 41.30677 -73.18999 20866 ft 436 kts 21°
2026-05-07 23:44 41.33273 -73.16878 20877 ft 443 kts 33°
2026-05-07 23:44 41.35551 -73.14070 20889 ft 449 kts 46°
2026-05-07 23:44 41.37396 -73.10695 20875 ft 453 kts 59°
2026-05-07 23:45 41.38704 -73.06898 20862 ft 451 kts 73°
2026-05-07 23:45 41.39404 -73.02847 20857 ft 448 kts 85°
2026-05-07 23:45 41.39841 -72.98726 20853 ft 448 kts 85°
2026-05-07 23:45 41.40277 -72.94595 20829 ft 457 kts 85°
2026-05-07 23:46 41.40725 -72.90324 20854 ft 476 kts 85°
2026-05-07 23:46 41.41192 -72.85905 20851 ft 485 kts 85°
2026-05-07 23:46 41.41667 -72.81443 20852 ft 488 kts 85°
2026-05-07 23:46 41.42146 -72.76963 20850 ft 488 kts 85°
2026-05-07 23:47 41.42623 -72.72470 20857 ft 488 kts 85°
2026-05-07 23:47 41.43096 -72.67997 20856 ft 488 kts 85°
2026-05-07 23:47 41.43568 -72.63514 20860 ft 488 kts 85°
2026-05-07 23:47 41.44037 -72.59036 20831 ft 488 kts 85°
2026-05-07 23:48 41.44497 -72.54607 20865 ft 489 kts 85°
2026-05-07 23:48 41.44964 -72.50115 20853 ft 488 kts 85°
2026-05-07 23:48 41.45434 -72.45578 20855 ft 488 kts 85°
2026-05-07 23:48 41.45891 -72.41146 20865 ft 489 kts 85°
2026-05-07 23:49 41.46354 -72.36659 20865 ft 489 kts 85°
2026-05-07 23:49 41.46816 -72.32124 20863 ft 489 kts 85°
2026-05-07 23:49 41.47262 -72.27684 20857 ft 489 kts 85°
2026-05-07 23:49 41.47741 -72.23207 20832 ft 489 kts 81°
2026-05-07 23:50 41.48703 -72.18837 20525 ft 492 kts 68°
2026-05-07 23:50 41.50157 -72.14732 19937 ft 487 kts 64°
2026-05-07 23:50 41.51645 -72.10691 19322 ft 483 kts 64°
2026-05-07 23:50 41.53128 -72.06688 18728 ft 480 kts 64°
2026-05-07 23:51 41.54599 -72.02709 18140 ft 477 kts 64°
2026-05-07 23:51 41.56042 -71.98733 17470 ft 474 kts 65°
2026-05-07 23:51 41.57373 -71.94715 16807 ft 471 kts 67°
2026-05-07 23:51 41.58593 -71.90676 16236 ft 467 kts 69°
2026-05-07 23:52 41.59735 -71.86667 16015 ft 455 kts 70°
2026-05-07 23:52 41.60833 -71.82727 16043 ft 453 kts 70°
2026-05-07 23:52 41.61940 -71.78788 15956 ft 453 kts 69°
2026-05-07 23:52 41.63063 -71.74874 15450 ft 449 kts 69°
2026-05-07 23:53 41.64191 -71.71019 14964 ft 443 kts 68°
2026-05-07 23:53 41.65319 -71.67208 14471 ft 438 kts 68°
2026-05-07 23:53 41.66436 -71.63444 13989 ft 433 kts 67°
2026-05-07 23:53 41.67536 -71.59730 13509 ft 427 kts 67°
2026-05-07 23:54 41.68601 -71.56105 12968 ft 417 kts 67°
2026-05-07 23:54 41.69637 -71.52563 12430 ft 402 kts 68°
2026-05-07 23:54 41.70635 -71.49133 11907 ft 389 kts 68°
2026-05-07 23:54 41.71595 -71.45824 11435 ft 375 kts 67°
2026-05-07 23:55 41.72612 -71.42642 11081 ft 366 kts 60°
2026-05-07 23:55 41.73846 -71.39738 11015 ft 350 kts 57°
2026-05-07 23:55 41.75037 -71.36956 11031 ft 340 kts 57°
2026-05-07 23:55 41.76207 -71.34208 11035 ft 339 kts 57°
2026-05-07 23:56 41.77376 -71.31463 11033 ft 339 kts 57°
2026-05-07 23:56 41.78543 -71.28727 11034 ft 339 kts 57°
2026-05-07 23:56 41.79714 -71.25984 11031 ft 339 kts 57°
2026-05-07 23:56 41.80884 -71.23249 11016 ft 338 kts 57°
2026-05-07 23:57 41.82029 -71.20562 11016 ft 329 kts 57°
2026-05-07 23:57 41.83159 -71.17905 11016 ft 327 kts 57°
2026-05-07 23:57 41.84290 -71.15251 11023 ft 327 kts 57°
2026-05-07 23:57 41.85423 -71.12589 11043 ft 327 kts 57°
2026-05-07 23:58 41.86534 -71.09983 10982 ft 327 kts 57°
2026-05-07 23:58 41.87666 -71.07354 10740 ft 323 kts 57°
2026-05-07 23:58 41.88790 -71.04759 10492 ft 320 kts 57°
2026-05-07 23:58 41.89905 -71.02189 10254 ft 317 kts 56°
2026-05-07 23:59 41.91009 -70.99640 10004 ft 314 kts 57°
2026-05-07 23:59 41.92102 -70.97119 9761 ft 311 kts 57°
2026-05-07 23:59 41.93186 -70.94611 9503 ft 309 kts 57°
2026-05-07 23:59 41.94253 -70.92127 9233 ft 306 kts 57°
2026-05-08 00:00 41.95313 -70.89649 8960 ft 304 kts 57°
2026-05-08 00:00 41.96361 -70.87201 8674 ft 301 kts 57°
2026-05-08 00:00 41.97404 -70.84766 8416 ft 299 kts 57°
2026-05-08 00:00 41.98443 -70.82351 8155 ft 297 kts 57°
2026-05-08 00:01 41.99464 -70.79965 8006 ft 294 kts 57°
2026-05-08 00:01 42.00487 -70.77572 8015 ft 295 kts 57°
2026-05-08 00:01 42.01653 -70.75360 8015 ft 292 kts 45°
2026-05-08 00:01 42.03019 -70.73328 8016 ft 292 kts 45°
2026-05-08 00:02 42.04382 -70.71296 8015 ft 292 kts 45°
2026-05-08 00:02 42.05763 -70.69292 8015 ft 291 kts 38°
2026-05-08 00:02 42.07478 -70.67945 7734 ft 284 kts 12°
2026-05-08 00:02 42.09406 -70.67631 7356 ft 278 kts 358°
2026-05-08 00:03 42.11306 -70.67630 7041 ft 265 kts 356°
2026-05-08 00:03 42.13094 -70.67660 7007 ft 251 kts 356°
2026-05-08 00:03 42.14839 -70.67694 7015 ft 251 kts 356°
2026-05-08 00:03 42.16582 -70.67731 7015 ft 250 kts 356°
2026-05-08 00:04 42.18323 -70.67768 7021 ft 250 kts 356°
2026-05-08 00:04 42.20047 -70.67797 7008 ft 250 kts 356°
2026-05-08 00:04 42.21784 -70.67825 7009 ft 250 kts 356°
2026-05-08 00:04 42.23528 -70.67851 6988 ft 251 kts 356°
2026-05-08 00:05 42.25294 -70.67884 6566 ft 253 kts 356°
2026-05-08 00:05 42.27026 -70.67929 6199 ft 247 kts 356°
2026-05-08 00:05 42.28736 -70.67981 5797 ft 244 kts 356°
2026-05-08 00:05 42.29859 -70.68014 5545 ft 243 kts 356°
2026-05-08 00:06 42.31541 -70.68063 5159 ft 241 kts 356°
2026-05-08 00:06 42.33714 -70.68361 4649 ft 231 kts 347°
2026-05-08 00:06 42.35266 -70.68756 4258 ft 223 kts 346°
2026-05-08 00:06 42.36759 -70.69147 4009 ft 210 kts 346°
2026-05-08 00:07 42.38119 -70.69568 4004 ft 194 kts 332°
2026-05-08 00:07 42.38849 -70.70255 3940 ft 189 kts 309°
2026-05-08 00:07 42.39441 -70.71791 3657 ft 184 kts 289°
2026-05-08 00:07 42.39808 -70.73419 3347 ft 183 kts 286°
2026-05-08 00:08 42.40024 -70.75097 3070 ft 181 kts 266°
2026-05-08 00:08 42.39781 -70.76748 3012 ft 178 kts 259°
2026-05-08 00:08 42.39522 -70.78370 3012 ft 171 kts 263°
2026-05-08 00:08 42.39297 -70.79957 3017 ft 174 kts 261°
2026-05-08 00:09 42.39036 -70.81569 2782 ft 176 kts 260°
2026-05-08 00:09 42.38763 -70.83161 2421 ft 168 kts 260°
2026-05-08 00:09 42.38507 -70.84632 2165 ft 154 kts 261°
2026-05-08 00:09 42.38272 -70.85970 1977 ft 138 kts 261°
2026-05-08 00:10 42.38057 -70.87198 1784 ft 132 kts 262°
2026-05-08 00:10 42.37847 -70.88397 1599 ft 130 kts 262°
2026-05-08 00:10 42.37638 -70.89593 1416 ft 131 kts 260°
2026-05-08 00:10 42.37429 -70.90780 1251 ft 129 kts 260°
2026-05-08 00:11 42.37222 -70.91960 1062 ft 130 kts 260°
2026-05-08 00:11 42.37012 -70.93149 893 ft 130 kts 259°
2026-05-08 00:11 42.36808 -70.94311 730 ft 128 kts 258°
2026-05-08 00:11 42.36593 -70.95510 595 ft 133 kts 257°
2026-05-08 00:12 42.36390 -70.96682 402 ft 127 kts 259°
2026-05-08 00:12 42.36185 -70.97835 206 ft 124 kts 260°
2026-05-08 00:12 42.35995 -70.98926 32 ft 115 kts 260°
2026-05-08 00:12 42.35845 -70.99771 29 ft 56 kts 256°
2026-05-08 00:13 42.35787 -71.00103 27 ft 34 kts 257°
2026-05-08 00:13 42.35756 -71.00401 25 ft 30 kts 278°
2026-05-08 00:13 42.35779 -71.00615 25 ft 14 kts 277°
2026-05-08 00:13 42.35790 -71.00728 30 ft 1 kts 277°
2026-05-08 00:14 42.35793 -71.00758 28 ft 3 kts 276°
2026-05-08 00:14 42.35793 -71.00768 27 ft 4 kts 276°
2026-05-08 00:14 42.35803 -71.00852 25 ft 13 kts 280°
2026-05-08 00:14 42.35822 -71.01014 28 ft 21 kts 278°
2026-05-08 00:15 42.35836 -71.01165 27 ft 16 kts 277°
2026-05-08 00:15 42.35854 -71.01326 26 ft 19 kts 279°
2026-05-08 00:15 42.35875 -71.01495 25 ft 8 kts 282°
2026-05-08 00:15 42.35929 -71.01530 29 ft 11 kts 17°
2026-05-08 00:16 42.36017 -71.01488 25 ft 15 kts 19°
2026-05-08 00:16 42.36130 -71.01434 27 ft 19 kts 19°
2026-05-08 00:16 42.36264 -71.01370 25 ft 17 kts 20°
2026-05-08 00:16 42.36359 -71.01322 27 ft 16 kts 20°
2026-05-08 00:17 42.36473 -71.01266 28 ft 19 kts 18°
2026-05-08 00:17 42.36598 -71.01206 28 ft 15 kts 21°
2026-05-08 00:17 42.36654 -71.01199 27 ft 5 kts 296°
2026-05-08 00:17 42.36648 -71.01233 27 ft 6 kts 240°
2026-05-08 00:18 42.36616 -71.01283 27 ft 0 kts 217°
2026-05-08 00:18 42.36615 -71.01284 27 ft 1 kts 217°
2026-05-08 00:18 42.36612 -71.01287 26 ft 2 kts 216°
2026-05-08 00:18 42.36599 -71.01294 28 ft 2 kts 203°
2026-05-08 00:19 42.36589 -71.01299 27 ft 2 kts 200°
2026-05-08 00:19 42.36565 -71.01314 28 ft 5 kts 213°
2026-05-08 00:19 42.36562 -71.01352 26 ft 3 kts 293°
2026-05-08 00:19 42.36572 -71.01381 27 ft 2 kts 297°
2026-05-08 00:20 42.36575 -71.01387 30 ft 0 kts 298°